Temperature
6 4 4 5 6 7 7 6 6 7 7 7 7 7 7 8 8 8 8 9 9 9 10 10 10 10 10 10 10 10 10 10 10 10 10 10 10 10 10 11 10 11 10 10
4 4 5 6 6 6 6 6 6 6 7 7 6 6 6 7 7 8 8 8 9 9 9 9 9 9 9 10 10 10 10 10 10 10 10 10 10 10 10 10 10 10 10 10
5 5 6 6 6 6 6 5 5 6 6 6 5 5 6 6 7 7 7 8 8 8 8 8 9 9 9 9 9 9 9 9 9 9 9 9 9 9 9 9 9 9 9 9
5 5 6 5 5 5 5 6 6 5 4 4 5 4 5 5 5 5 6 6 7 7 7 8 8 8 8 8 8 8 8 8 8 8 8 9 8 8 9 9 9 9 9 9
4 5 5 5 5 5 5 5 5 5 4 3 3 3 4 4 5 5 5 5 6 6 6 7 7 7 8 8 8 8 8 8 8 8 8 8 8 8 8 8 8 8 8 8
4 5 5 5 5 6 5 4 3 3 2 3 3 3 4 3 4 5 4 5 5 5 6 6 6 7 7 7 7 7 7 7 7 7 7 7 7 8 7 7 8 8 8 8
4 4 5 5 5 5 4 3 2 2 2 2 3 3 3 4 4 4 4 4 5 5 5 5 6 6 6 6 6 6 6 7 7 7 7 7 7 7 7 7 7 7 7 7
2 3 4 4 4 4 3 3 2 3 2 2 3 3 3 4 4 4 4 4 4 4 4 5 5 5 5 5 5 5 6 6 6 6 6 6 6 6 6 6 6 6 7 7
2 2 4 4 4 4 3 2 3 2 1 2 2 2 3 4 3 3 3 3 3 3 3 4 4 4 4 4 5 5 5 5 5 5 5 6 6 6 6 6 6 6 6 6
2 1 2 3 4 4 3 2 1 1 2 2 2 2 3 3 3 3 2 2 2 3 3 3 3 3 3 4 4 4 4 4 4 5 5 5 5 5 5 5 6 6 6 6
1 1 1 2 2 2 2 2 1 1 1 1 2 3 4 3 3 2 2 2 2 2 2 2 2 3 3 3 3 3 4 4 4 4 4 4 4 5 5 5 5 5 5 5
1 -0 -0 1 2 2 2 2 1 1 1 0 0 2 3 2 2 2 1 2 2 2 2 2 2 2 2 2 3 3 3 3 3 3 3 3 4 4 4 4 4 4 4 5
1 -0 0 1 1 1 1 1 1 0 0 -0 0 2 3 2 2 2 1 1 1 1 1 2 2 2 2 2 2 2 2 2 2 2 2 3 3 3 3 4 4 4 4 4
1 -1 0 1 1 0 0 0 0 0 0 -0 0 1 2 2 1 1 1 1 1 1 1 1 1 1 1 1 1 1 2 1 2 2 2 2 2 3 3 3 3 3 3 3
-0 -1 -1 -1 0 -0 -0 0 -0 -0 -0 -0 0 0 1 0 0 0 0 0 0 0 1 1 1 1 1 1 1 1 1 1 1 1 2 2 2 2 2 2 2 2 3 3
-2 -2 -2 -1 -0 -0 -0 -0 -0 -0 -0 -1 -0 -0 0 0 -0 -0 -0 -0 -0 -0 0 0 0 1 1 1 1 1 1 1 1 1 1 1 1 1 1 2 2 2 2 2
-2 -2 -2 -1 -1 -1 -0 -1 -1 -1 -1 -1 -1 -0 -1 -1 -1 -1 -1 -1 -1 -1 -0 -0 -0 0 0 0 0 0 1 1 0 0 0 1 1 1 1 1 1 1 1 1
-3 -3 -3 -2 -2 -0 0 -1 -1 -1 -1 -2 -1 -1 -2 -2 -1 -1 -1 -1 -1 -1 -1 -1 -1 -1 -0 -0 -0 -0 -0 -0 -0 -0 -0 -0 -0 -0 0 0 0 0 1 1
-3 -3 -3 -3 -2 -1 -0 -1 -2 -2 -2 -2 -2 -2 -2 -2 -2 -2 -1 -1 -2 -1 -1 -1 -1 -1 -1 -1 -1 -1 -1 -1 -1 -1 -1 -1 -1 -1 -1 -1 -0 -0 -0 0
-4 -3 -3 -3 -2 -1 0 -1 -1 -1 -2 -2 -2 -3 -3 -3 -3 -3 -2 -2 -2 -2 -2 -2 -2 -1 -1 -1 -1 -1 -1 -1 -1 -2 -2 -2 -2 -2 -1 -1 -1 -1 -1 -1
-4 -4 -3 -3 -3 -2 -1 -1 -1 -1 -1 -2 -2 -2 -3 -4 -3 -3 -3 -3 -2 -2 -2 -2 -2 -2 -2 -2 -2 -2 -2 -2 -2 -2 -2 -2 -2 -2 -2 -2 -1 -1 -1 -1
-3 -4 -4 -4 -3 -2 -2 -2 -2 -2 -2 -2 -2 -2 -3 -3 -3 -3 -3 -3 -3 -3 -3 -2 -2 -2 -2 -2 -2 -2 -3 -3 -3 -3 -3 -2 -2 -2 -2 -2 -2 -2 -2 -2
-4 -3 -3 -3 -2 -2 -2 -2 -1 -1 -2 -2 -2 -3 -3 -3 -4 -4 -3 -3 -3 -3 -3 -3 -3 -3 -3 -3 -3 -3 -3 -3 -3 -3 -3 -3 -3 -3 -2 -2 -2 -2 -2 -2
-4 -4 -4 -4 -3 -3 -2 -2 -2 -2 -2 -2 -3 -3 -3 -4 -4 -4 -4 -4 -3 -3 -3 -3 -3 -3 -3 -3 -3 -3 -3 -3 -3 -3 -3 -3 -3 -3 -3 -3 -3 -3 -3 -3
-4 -5 -5 -4 -4 -4 -3 -2 -2 -2 -3 -3 -3 -3 -4 -4 -4 -4 -4 -4 -4 -4 -4 -4 -4 -3 -3 -3 -3 -3 -3 -4 -4 -4 -4 -3 -3 -3 -3 -3 -3 -3 -3 -3
-5 -5 -4 -3 -3 -4 -3 -2 -3 -3 -3 -4 -4 -4 -4 -4 -4 -4 -4 -4 -4 -4 -4 -4 -4 -4 -4 -4 -4 -4 -4 -4 -4 -4 -4 -4 -4 -4 -4 -3 -3 -3 -3 -3
Wind_Speed
1 3 3 6 7 5 3 4 6 6 3 3 8 12 12 8 5 6 6 6 5 5 5 3 2 2 2 2 3 4 4 4 3 3 3 3 4 4 4 6 8 9 10 11
3 3 6 4 3 3 4 5 7 6 4 4 7 12 10 7 7 7 7 6 6 4 3 2 1 0 0 2 3 4 4 4 4 4 4 4 4 4 4 4 6 9 10 10
5 4 3 3 3 4 5 6 6 6 5 3 4 8 6 5 3 3 3 4 3 3 2 1 1 0 0 1 2 3 4 4 4 4 3 2 1 1 3 3 4 6 8 10
2 3 2 2 3 4 6 5 5 4 2 4 1 5 7 4 3 2 2 1 1 1 0 0 1 2 2 3 2 2 3 3 3 3 3 5 4 4 5 4 4 5 7 8
2 2 2 3 4 4 4 2 2 2 2 3 3 4 8 3 3 4 3 2 2 2 1 2 2 2 3 2 2 2 2 3 3 3 4 5 4 4 3 3 4 5 6 7
3 2 2 4 2 2 1 2 3 2 2 4 6 6 6 3 5 4 3 3 2 2 2 2 3 2 3 3 2 2 2 3 4 4 4 5 5 4 4 4 5 5 5 6
3 3 2 1 0 1 2 3 3 3 2 6 3 4 7 5 3 3 3 3 2 1 2 3 4 4 3 3 4 3 3 4 4 4 4 5 6 6 6 6 6 5 5 5
1 4 3 1 2 3 2 4 5 4 5 5 2 6 6 3 2 1 1 1 1 2 3 3 4 3 4 4 4 3 4 5 4 4 4 4 4 4 4 5 5 5 5 6
3 4 3 3 2 4 3 3 4 3 2 4 5 5 6 1 1 2 2 2 2 2 3 4 4 4 4 4 4 4 4 4 4 4 4 4 4 4 4 4 4 4 3 4
4 3 4 2 1 0 3 4 3 3 3 5 6 5 5 4 3 2 2 2 3 3 3 4 4 4 4 4 4 3 3 4 4 3 3 3 3 4 4 4 4 4 4 4
2 2 3 1 4 5 2 2 3 3 3 4 4 6 4 4 2 2 3 3 3 4 4 4 4 4 4 4 3 3 3 3 3 3 3 3 3 4 3 3 4 4 4 4
2 3 3 5 4 2 4 5 5 4 4 4 4 7 4 2 1 1 3 4 4 4 4 4 4 4 4 4 4 3 3 3 3 3 3 3 3 3 2 3 3 3 3 3
3 3 1 4 3 1 2 3 4 3 3 4 5 7 1 2 4 3 4 5 5 5 5 4 4 4 4 4 4 4 3 3 3 3 3 3 3 2 2 2 2 3 3 3
2 3 6 7 5 3 4 5 4 4 5 6 9 10 9 7 6 6 6 5 5 4 4 5 5 5 4 4 3 3 3 3 2 2 2 2 2 2 2 2 2 2 2 3
3 3 4 6 6 4 6 8 7 9 8 8 8 9 11 7 7 6 5 5 5 6 6 6 5 5 4 4 4 3 3 2 2 1 1 2 2 2 1 2 1 1 1 2
1 2 2 5 5 5 8 9 9 9 7 9 9 11 6 6 4 5 6 5 6 7 7 7 6 5 4 4 4 3 3 2 2 1 2 2 2 1 1 2 1 1 1 1
2 3 1 4 4 3 6 7 7 5 5 6 9 9 5 6 6 6 6 6 6 7 7 6 5 5 5 4 4 3 3 2 1 1 2 2 2 2 2 2 2 1 2 2
4 4 2 1 2 5 6 1 4 5 6 5 5 5 5 7 7 6 4 4 6 6 6 6 6 6 5 4 4 3 2 2 1 1 2 2 2 2 2 2 2 2 2 2
4 5 3 2 3 7 6 2 2 3 5 4 5 5 5 4 4 4 2 4 4 6 6 5 5 5 4 4 3 3 3 3 2 2 2 3 2 2 2 2 2 2 2 2
2 3 3 2 3 6 5 3 2 2 5 3 2 4 4 3 3 5 5 6 6 6 5 5 5 4 4 4 3 3 3 3 3 3 3 3 3 2 3 3 3 2 2 2
2 2 4 4 5 7 5 2 2 2 5 2 2 2 2 2 4 6 7 6 5 5 5 5 4 4 4 4 3 2 3 3 3 3 3 3 3 3 3 3 3 2 2 2
6 5 5 4 4 7 2 2 3 5 2 1 2 2 2 3 4 5 5 6 6 6 5 5 4 4 5 4 3 3 3 4 3 3 3 4 3 3 3 2 3 2 2 2
5 6 5 7 7 3 1 3 3 2 2 2 2 2 2 3 4 5 5 5 5 5 5 4 4 4 5 4 3 3 4 3 3 3 3 3 4 3 3 2 2 2 2 2
4 2 3 4 6 4 4 3 2 2 2 2 2 2 2 3 4 5 5 5 5 5 4 4 4 5 5 5 5 4 4 3 3 3 3 3 3 3 3 3 2 2 2 2
4 3 3 4 5 4 4 4 3 2 1 1 2 2 2 3 4 4 5 5 5 4 4 3 4 5 6 6 6 5 4 3 3 3 3 3 3 3 3 3 3 3 3 4
4 5 5 6 5 4 5 3 2 2 2 2 2 3 3 3 4 4 4 5 4 4 4 4 4 5 5 5 6 5 5 3 2 3 3 3 2 2 2 2 3 4 4 5
Wind_Direction
85 94 202 214 207 211 204 229 256 260 275 271 256 267 273 268 254 249 249 250 251 250 258 250 237 231 203 195 196 197 196 204 194 190 199 200 212 227 220 208 208 205 197 192
64 239 235 218 214 226 238 254 267 287 298 272 274 277 274 261 246 237 235 240 245 249 282 294 286 273 215 214 209 210 206 201 200 205 206 209 209 216 224 220 211 209 201 195
190 231 223 204 230 231 244 232 246 267 316 314 309 294 274 271 263 259 246 246 245 222 230 259 349 351 331 260 233 230 226 216 211 212 205 212 219 233 226 231 225 218 207 200
225 254 227 210 233 210 250 244 244 258 288 284 255 282 279 269 300 295 286 291 287 289 306 299 330 319 289 260 260 261 243 230 222 207 199 198 212 226 234 226 227 227 210 203
243 221 205 222 232 202 228 268 255 244 223 292 245 227 282 296 271 265 259 261 271 277 276 297 288 280 288 279 266 268 269 254 237 220 211 207 226 234 241 233 228 225 218 208
250 249 217 220 242 215 215 33 29 50 90 266 232 201 275 253 246 261 254 263 277 294 320 318 315 316 323 329 312 289 282 269 252 235 224 213 221 232 233 236 230 226 222 217
310 292 288 189 113 0 74 81 25 353 310 250 230 215 250 254 246 236 245 259 280 320 327 323 324 322 320 326 321 307 288 280 267 247 237 229 226 222 222 227 225 223 224 225
190 274 255 227 184 191 197 149 165 210 239 278 266 235 250 257 256 236 210 243 340 343 340 332 320 311 308 303 300 297 290 285 279 261 254 249 237 230 234 231 225 225 225 224
183 249 278 243 217 156 157 196 180 166 243 272 265 273 291 234 7 22 16 8 342 329 328 322 318 310 301 295 282 272 274 282 278 265 261 253 242 233 238 237 225 226 233 230
160 248 274 273 65 20 158 156 114 150 205 260 277 263 251 259 297 316 312 303 306 315 317 314 313 306 300 290 285 274 259 269 273 257 248 256 254 248 246 231 225 229 229 222
131 180 292 306 202 202 159 161 160 168 185 199 263 268 234 219 230 272 279 280 291 299 301 301 304 305 303 303 302 289 281 280 275 264 257 262 265 264 250 233 233 230 227 221
146 144 249 252 263 241 196 191 168 183 231 209 226 268 276 214 239 308 322 315 304 299 297 296 302 309 312 312 317 308 294 278 269 261 257 257 262 264 251 249 243 230 226 222
155 146 331 330 325 338 231 217 192 180 178 199 218 260 296 5 348 341 330 318 313 313 313 316 322 321 317 315 310 303 292 276 272 263 257 264 267 261 261 257 248 228 223 227
143 175 198 217 232 213 251 246 222 194 213 229 233 257 289 310 319 321 320 312 310 309 314 322 323 320 318 318 311 306 303 292 284 274 263 268 271 262 263 263 254 237 225 228
113 209 238 256 262 244 248 254 238 223 220 226 249 258 274 285 294 302 307 313 319 321 321 321 320 319 320 325 326 324 323 321 309 303 289 278 278 280 285 290 282 263 245 254
114 193 244 275 266 256 263 258 242 237 237 241 262 273 276 290 300 308 313 318 318 317 318 322 324 324 323 325 326 327 326 326 328 321 306 307 307 300 294 293 286 275 275 272
173 154 181 265 304 329 271 243 218 217 224 215 240 257 303 304 302 302 302 307 311 312 315 319 321 320 315 313 315 313 312 322 318 301 299 312 310 309 307 303 300 288 282 281
167 156 173 263 13 244 248 208 190 214 238 228 246 270 272 279 291 287 280 298 312 316 316 317 317 319 318 321 324 324 331 339 324 308 305 308 305 303 307 297 294 293 274 274
174 164 173 185 241 274 287 251 190 211 261 239 245 280 300 311 318 308 305 322 313 312 311 310 311 314 323 328 331 352 2 356 349 335 323 316 305 297 295 290 292 285 282 292
104 134 164 183 216 245 260 272 220 138 275 258 237 275 303 345 314 297 322 325 326 327 324 325 329 336 341 333 348 16 358 354 336 322 314 311 302 291 287 288 290 287 281 289
156 174 199 208 231 263 264 275 105 174 264 282 248 261 277 249 247 284 311 322 329 328 327 334 340 342 337 338 2 8 350 331 317 320 320 321 319 303 292 296 293 288 293 300
179 181 197 185 217 256 258 129 185 231 279 288 293 284 270 269 285 300 312 322 329 332 336 342 344 337 337 344 359 353 327 314 320 323 325 324 321 313 310 307 305 301 294 296
200 198 196 199 219 256 235 211 237 226 252 266 278 285 281 291 299 309 315 319 324 327 333 339 341 335 337 342 346 329 312 312 316 322 320 316 315 314 309 302 303 302 287 274
251 204 195 244 258 259 267 260 275 248 250 263 248 264 282 284 295 306 309 315 322 325 329 334 339 337 333 335 333 312 311 319 324 322 314 308 310 314 315 304 291 274 265 264
227 187 208 252 275 305 284 255 258 265 267 286 288 274 268 275 288 296 305 306 311 319 323 329 332 327 323 328 330 329 324 324 324 317 311 314 314 306 310 304 291 280 263 257
203 190 194 231 231 220 261 271 258 254 270 264 274 302 301 280 281 294 301 300 306 314 320 326 326 323 320 323 324 326 327 322 318 318 315 312 309 303 298 301 309 306 290 292
Height
1485 1490 1492 1490 1490 1489 1490 1491 1491 1488 1484 1485 1483 1479 1474 1472 1472 1472 1471 1470 1470 1471 1472 1473 1473 1474 1475 1476 1477 1478 1479 1480 1481 1482 1482 1483 1485 1486 1487 1490 1492 1494 1495 1497
1489 1491 1487 1487 1488 1489 1490 1491 1491 1487 1484 1484 1482 1478 1472 1469 1468 1467 1467 1467 1467 1468 1469 1469 1470 1471 1471 1472 1473 1474 1475 1475 1476 1478 1479 1479 1481 1482 1484 1485 1487 1489 1491 1493
1487 1487 1484 1486 1487 1488 1489 1490 1489 1488 1486 1484 1484 1478 1471 1466 1465 1464 1464 1464 1464 1465 1466 1466 1467 1467 1468 1468 1469 1470 1471 1471 1472 1474 1475 1476 1477 1477 1479 1481 1482 1484 1486 1488
1486 1484 1484 1485 1486 1486 1488 1485 1485 1486 1490 1492 1489 1487 1471 1466 1465 1463 1462 1462 1462 1463 1463 1464 1464 1464 1465 1465 1465 1466 1467 1467 1468 1469 1469 1470 1471 1472 1473 1475 1477 1479 1480 1482
1486 1484 1484 1484 1484 1484 1485 1483 1484 1485 1489 1494 1490 1492 1475 1468 1465 1463 1462 1461 1461 1461 1461 1461 1461 1462 1462 1462 1462 1462 1463 1463 1464 1464 1465 1466 1466 1468 1469 1471 1472 1473 1475 1477
1485 1483 1482 1482 1482 1482 1482 1484 1487 1490 1494 1495 1488 1490 1477 1470 1464 1461 1460 1460 1459 1459 1459 1459 1459 1459 1458 1458 1459 1458 1458 1458 1459 1460 1460 1461 1462 1463 1464 1465 1467 1468 1469 1471
1486 1483 1481 1481 1482 1482 1484 1491 1499 1498 1501 1493 1483 1483 1474 1464 1461 1460 1459 1458 1457 1457 1456 1456 1455 1455 1454 1454 1454 1454 1454 1454 1454 1455 1455 1456 1457 1458 1459 1460 1462 1463 1464 1465
1491 1490 1483 1481 1482 1483 1485 1488 1497 1500 1501 1492 1483 1479 1468 1461 1459 1458 1457 1457 1456 1455 1455 1454 1453 1452 1451 1451 1451 1451 1450 1450 1450 1450 1451 1452 1453 1454 1455 1456 1457 1458 1459 1460
1491 1488 1481 1480 1479 1481 1484 1488 1487 1495 1496 1495 1485 1476 1465 1459 1458 1457 1456 1455 1455 1454 1453 1452 1451 1449 1449 1448 1447 1446 1446 1446 1445 1446 1446 1447 1448 1449 1450 1451 1452 1453 1454 1455
1487 1491 1483 1480 1479 1480 1481 1484 1491 1494 1495 1490 1483 1477 1467 1460 1458 1457 1456 1455 1454 1453 1451 1450 1448 1447 1446 1445 1444 1443 1442 1442 1441 1442 1442 1443 1443 1444 1445 1446 1447 1448 1449 1450
1485 1491 1487 1483 1482 1482 1483 1485 1487 1492 1493 1492 1487 1473 1458 1457 1457 1456 1455 1454 1453 1451 1449 1448 1446 1444 1443 1442 1440 1439 1438 1438 1437 1437 1438 1438 1438 1439 1440 1441 1442 1443 1444 1445
1485 1490 1491 1485 1480 1478 1479 1481 1485 1489 1491 1491 1490 1475 1455 1455 1454 1454 1454 1453 1451 1449 1447 1446 1444 1441 1439 1438 1436 1435 1434 1434 1434 1434 1434 1434 1435 1435 1436 1436 1437 1438 1439 1441
1484 1488 1491 1485 1485 1482 1480 1479 1481 1484 1486 1488 1485 1471 1455 1455 1454 1454 1453 1451 1449 1447 1445 1443 1441 1438 1436 1434 1433 1432 1431 1430 1431 1431 1430 1431 1431 1431 1432 1432 1433 1434 1435 1436
1480 1485 1487 1483 1479 1480 1480 1478 1479 1481 1483 1483 1476 1465 1457 1456 1455 1453 1451 1449 1447 1445 1443 1441 1438 1436 1434 1432 1431 1429 1428 1428 1427 1427 1427 1427 1427 1428 1428 1429 1429 1430 1431 1432
1480 1484 1484 1481 1477 1478 1477 1476 1475 1476 1474 1475 1467 1464 1457 1456 1455 1452 1449 1447 1445 1442 1440 1438 1436 1434 1432 1430 1429 1427 1426 1425 1425 1424 1424 1423 1424 1425 1425 1426 1427 1427 1428 1428
1481 1483 1484 1480 1475 1475 1474 1470 1470 1470 1469 1468 1465 1460 1455 1454 1452 1450 1447 1445 1443 1441 1439 1436 1434 1432 1430 1428 1427 1425 1424 1423 1422 1421 1421 1421 1421 1422 1422 1423 1424 1424 1424 1425
1481 1484 1484 1481 1477 1474 1471 1465 1465 1466 1464 1463 1462 1456 1454 1453 1450 1448 1446 1444 1442 1439 1437 1435 1433 1431 1429 1427 1425 1423 1422 1421 1420 1419 1419 1419 1419 1419 1419 1420 1420 1420 1421 1422
1480 1482 1484 1483 1481 1476 1464 1460 1460 1460 1459 1458 1456 1453 1452 1450 1447 1446 1444 1442 1440 1438 1435 1433 1431 1429 1427 1425 1423 1421 1420 1419 1418 1417 1417 1416 1416 1416 1417 1417 1417 1417 1418 1418
1475 1479 1483 1484 1482 1472 1461 1458 1459 1460 1458 1454 1453 1451 1449 1448 1445 1443 1442 1441 1439 1436 1434 1432 1429 1427 1425 1423 1421 1419 1418 1417 1416 1415 1414 1414 1414 1414 1414 1414 1414 1414 1415 1415
1476 1477 1481 1482 1478 1470 1459 1455 1454 1458 1456 1451 1450 1449 1448 1447 1448 1443 1440 1438 1436 1434 1432 1430 1427 1425 1423 1422 1420 1418 1416 1415 1414 1413 1413 1412 1412 1411 1411 1411 1411 1412 1412 1412
1477 1479 1479 1480 1478 1466 1456 1454 1454 1460 1454 1449 1448 1447 1447 1446 1446 1443 1439 1437 1435 1433 1431 1428 1426 1424 1422 1420 1418 1416 1415 1414 1413 1412 1411 1410 1410 1409 1409 1409 1409 1409 1409 1409
1472 1475 1477 1477 1476 1465 1453 1453 1455 1453 1449 1448 1447 1446 1445 1443 1442 1440 1438 1435 1433 1431 1429 1427 1425 1423 1421 1419 1417 1415 1413 1413 1411 1410 1409 1408 1408 1407 1407 1406 1406 1406 1406 1405
1466 1465 1464 1464 1460 1453 1451 1450 1449 1448 1447 1446 1445 1444 1443 1441 1439 1438 1436 1434 1432 1430 1428 1426 1424 1421 1420 1418 1416 1414 1413 1412 1410 1409 1408 1407 1406 1405 1405 1404 1403 1403 1403 1403
1461 1459 1460 1459 1453 1450 1449 1448 1447 1446 1445 1444 1444 1443 1441 1439 1438 1436 1434 1432 1430 1428 1427 1425 1423 1420 1419 1417 1415 1413 1412 1410 1409 1407 1406 1405 1404 1403 1403 1402 1402 1401 1401 1400
1456 1457 1457 1456 1451 1448 1446 1446 1445 1444 1443 1442 1441 1441 1439 1438 1436 1435 1433 1431 1429 1427 1425 1423 1421 1419 1418 1416 1414 1412 1410 1409 1407 1406 1404 1403 1402 1401 1401 1400 1399 1399 1398 1398
1451 1452 1453 1450 1446 1447 1445 1444 1443 1441 1440 1440 1439 1437 1437 1436 1434 1433 1431 1429 1427 1425 1424 1422 1420 1418 1416 1414 1413 1411 1409 1407 1405 1404 1403 1401 1400 1399 1399 1398 1397 1397 1397 1396